Powrót do katalogu

COSMOS 1954

AktywnyMilitariaLEO
NORAD 19256·PAYLOAD·🇷🇺 Russia

Wystrzelony Jun 21, 1988 z Plesetsk Cosmodrome

Loading…

Następne Przeloty (najbliższe 24 godziny)

TLE

ŚwieżeSource: Space-Track

Epoka: Sep 14, 2026, 08:22 UTC

1 19256U 88053A   26257.34913632  .00000070  00000-0  33866-4 0  9997
2 19256  74.0449 239.8151 0016896 234.9667 124.9900 14.35006574999781

Śledź COSMOS 1954 w czasie rzeczywistym z AllMySat

Download on the App Store